User: anonymous   Login
Location: Unspecified
(0.0000°N, 0.0000°E)
Time: 18:58:51
(UTC+00:00)
Language:

UME 2 Rocket - Orbit

View from above orbital plane
View from above orbital plane
View from above satellite
View from above satellite

Ground track
Ground track

The orbit data is extracted from the following two-line orbital elements,

1 10674U 78018A   19077.74615380 -.00000062 +00000-0 -20064-4 0  9996
2 10674 069.3622 189.1273 0160951 102.1136 049.2479 13.43610797014994
Epoch (UTC): 18 March 2019 17:54:27
Eccentricity: 0.0160951
inclination: 69.3622°
perigee height: 975 km
apogee height: 1216 km
right ascension of ascending node: 189.1273°
argument of perigee: 102.1136°
revolutions per day: 13.43610797
mean anomaly at epoch: 49.2479°
orbit number at epoch: 1499

The dashed part of the orbit path shows where the satellite is in the earth's shadow,  

DLR